Location: Lugano
(46.0000°N, 8.9670°E)
Time: 06:19:01
(UTC+01:00)

ZACube-1 - Pass Details

Date: 14 September 2025
Orbit: 541 x 599 km, 97.8° (Epoch: 08 December)

Event Time Altitude Azimuth Distance (km) Brightness Sun altitude
Rises 05:03:18 0° 6° (N) 2,719 ? -20.3°
Reaches altitude 10° 05:05:30 10° 358° (N) 1,826 ? -20.0°
Enters shadow 05:09:07 39° 292° (WNW) 833 ? -19.4°
